SCP
0 0 0 0 0 0 0 0 0 0 0 0 0 0 0 0 0 0 0 0 0 -0 0 0 0 0 0 0 0 0 0 0 0 0 0 0 0 0 0 0 0 0 0 0 0
0 0 0 0 0 0 0 0 0 0 0 0 0 0 0 0 0 0 0 0 0 -0 0 0 0 0 0 0 0 0 0 0 0 0 0 0 0 0 0 0 0 0 0 0 0
0 0 0 0 0 0 -0 -0 0 0 0 0 0 0 0 0 0 0 0 0 0 -0 0 0 0 0 0 0 0 0 0 0 0 0 0 0 0 0 0 0 0 0 0 0 0
0 0 0 0 0 -0 -0 -0 0 0 0 0 0 0 0 0 0 0 0 0 0 0 0 0 0 0 0 0 0 0 0 0 0 0 0 0 0 0 0 0 0 0 0 0 0
0 0 0 0 0 -0 -0 -0 0 0 0 0 0 0 0 0 0 0 -0 0 0 0 0 0 0 0 0 0 0 0 0 0 0 0 0 0 0 0 0 0 0 0 0 0 0
0 0 0 0 -0 -0 -0 -0 0 0 0 0 0 0 0 0 0 0 -0 -0 -0 0 0 0 0 0 0 0 0 0 0 0 0 0 0 0 0 0 0 0 0 0 0 0 0
0 0 0 -0 -0 -0 -0 0 0 0 -0 0 0 0 0 0 0 0 0 0 0 0 0 0 0 0 0 0 0 0 0 0 0 0 0 0 0 0 0 0 0 0 0 0 0
0 0 0 -0 -0 -0 -0 0 0 -0 0 0 0 0 0 0 0 0 0 -0 -0 0 0 0 0 0 0 0 0 0 0 0 0 0 0 0 0 0 0 0 0 0 0 0 0
0 0 0 -0 -0 -0 -0 0 0 0 0 0 0 0 0 0 0 0 0 0 -0 0 0 0 0 0 0 0 0 0 0 0 0 -0 0 0 0 0 0 0 0 0 0 0 0
0 0 0 -0 -0 -0 -0 -0 -0 0 0 0 0 0 0 0 0 0 0 -0 -0 0 0 0 0 0 0 0 0 0 0 0 0 0 0 -0 0 0 0 0 0 0 0 0 0
0 0 0 0 -0 -0 0 0 -0 0 0 0 0 0 0 0 0 0 0 -0 -0 0 0 0 0 0 0 0 0 0 0 0 0 0 0 -0 -0 0 0 0 0 0 0 0 0
0 0 -0 -0 -0 -0 0 0 0 0 0 0 0 0 0 0 0 0 0 0 -0 0 0 0 0 0 0 0 0 0 0 0 0 0 0 -0 -0 0 0 0 0 0 0 0 0
0 0 -0 -0 -0 0 0 0 0 0 0 0 0 0 0 0 0 -0 0 0 -0 0 0 0 0 0 0 0 0 0 0 0 0 0 0 0 -0 -0 0 -0 0 0 0 0 0
0 0 -0 -0 0 0 0 0 0 0 0 0 0 0 0 0 0 0 0 0 0 0 0 0 0 0 0 0 0 0 0 0 0 0 0 0 -0 0 -0 -0 -0 0 0 0 0
0 0 -0 0 0 0 0 0 0 0 0 0 0 0 -0 0 0 0 0 0 -0 -0 0 0 0 0 0 0 0 0 0 0 0 0 0 0 -0 -0 0 0 0 0 0 0 0
0 0 0 0 0 0 0 0 0 0 0 0 0 0 -0 0 0 0 -0 0 0 -0 0 0 0 0 0 0 0 0 0 0 0 0 0 0 -0 -0 0 0 0 0 0 0 0
0 0 0 0 0 0 0 0 0 0 0 0 0 0 0 -0 -0 -0 0 -0 -0 0 0 0 0 0 0 0 0 0 0 0 0 0 0 0 0 0 0 0 0 0 0 0 0
0 0 0 0 0 0 0 0 0 0 0 0 0 0 0 0 0 -0 0 0 -0 -0 0 0 0 0 0 0 0 0 0 0 0 0 0 0 -0 -0 -0 0 0 0 0 0 0
0 0 0 0 0 0 0 0 0 0 0 0 0 0 0 0 0 -0 0 -0 -0 -0 0 0 0 0 0 0 0 0 0 0 0 0 0 0 0 0 0 0 0 0 0 0 0
0 0 0 0 -0 0 0 0 0 0 0 0 0 0 0 0 0 0 0 0 -0 -0 -0 0 0 0 0 0 0 0 0 0 0 0 0 0 0 -0 0 0 0 0 0 0 0
0 0 0 0 0 0 0 0 0 -0 0 0 0 0 0 0 0 0 0 0 0 0 0 0 0 0 0 0 0 0 0 0 0 0 0 0 0 0 0 0 0 0 0 0 0
0 0 0 0 0 0 0 0 0 0 0 0 0 0 0 0 0 0 0 -0 0 0 0 0 0 0 0 0 0 0 0 0 0 0 0 0 0 0 0 0 0 0 0 0 0
0 0 0 0 0 0 0 0 0 0 0 0 0 0 0 0 0 0 0 0 0 0 0 0 0 0 0 0 0 0 0 0 0 0 0 0 0 0 -0 0 0 0 0 0 0
0 0 0 0 0 0 0 0 0 0 0 0 0 0 0 0 0 0 0 0 0 0 0 0 0 0 0 0 0 0 0 0 0 0 0 0 0 0 0 -0 0 0 0 0 0
0 0 0 0 0 0 0 0 0 0 0 0 0 0 0 0 0 0 0 0 0 -0 0 0 0 0 0 0 0 0 0 0 0 0 0 0 0 0 0 0 0 -0 0 0 0
0 0 0 0 0 0 0 0 0 0 0 0 0 0 0 0 0 0 0 0 0 0 0 0 0 0 0 0 0 0 0 0 0 0 0 0 0 0 0 0 0 -0 -0 -0 0
0 0 0 0 0 0 0 0 0 0 0 0 0 0 0 0 0 0 0 0 0 0 0 0 0 0 0 0 0 0 0 0 0 0 0 0 0 0 0 0 0 0 0 0 -0
Wind_Speed_500mb
20 22 22 25 27 31 33 36 40 43 45 46 47 47 47 48 48 47 55 55 44 39 36 38 23 16 22 23 23 26 8 12 13 2 4 22 30 50 2 16 17 11 26 27 68
21 23 24 25 29 33 36 38 42 46 49 50 49 47 45 48 52 64 50 31 40 36 44 47 37 15 14 23 21 13 17 33 18 7 6 26 25 39 26 15 17 36 29 53 79
22 24 25 26 30 35 38 41 46 50 53 53 50 46 43 42 53 33 0 12 15 18 47 52 47 30 29 26 21 14 25 31 53 34 3 20 37 43 39 3 4 46 63 67 81
23 25 26 27 30 35 40 45 51 52 53 52 51 51 40 29 12 6 19 33 40 23 39 46 48 41 8 20 33 13 24 50 52 39 14 16 30 47 12 23 41 33 50 64 78
23 25 27 29 31 35 42 48 49 52 54 54 48 40 29 17 47 43 40 44 42 45 31 47 44 42 11 15 21 15 16 35 47 38 29 31 14 21 55 45 28 31 53 59 72
23 24 26 30 33 38 45 47 50 57 48 38 30 21 16 27 24 16 38 51 56 42 42 32 45 50 15 17 30 33 20 28 29 23 25 26 41 21 52 32 22 23 45 44 65
22 25 26 30 35 41 47 46 50 43 31 29 24 19 26 38 36 41 44 35 38 41 39 54 53 48 24 10 29 31 17 15 24 24 6 17 28 16 56 55 47 29 35 34 44
22 25 26 31 36 43 46 47 39 21 30 17 11 15 18 31 43 42 40 49 38 23 43 44 35 46 32 11 2 19 2 9 17 33 17 20 31 22 38 40 46 26 35 29 36
20 23 25 30 36 42 44 46 23 19 33 12 18 33 19 45 53 55 48 43 34 17 42 34 20 16 25 6 4 10 9 14 15 48 20 15 13 37 55 46 38 41 36 39 33
21 23 24 29 37 39 45 43 31 25 30 16 19 8 18 55 60 54 52 25 16 18 18 31 18 8 1 15 14 20 10 22 12 25 20 28 28 19 34 29 42 37 41 41 50
21 23 24 28 35 33 42 45 49 14 23 8 19 16 41 58 41 59 38 26 19 6 8 14 26 16 13 14 3 18 10 9 10 18 21 26 25 11 35 37 38 33 22 22 55
22 23 23 26 27 30 33 30 23 11 18 23 19 16 48 50 27 57 35 14 16 9 33 9 4 4 13 11 8 8 4 4 11 27 9 16 21 13 16 23 53 38 26 35 26
22 21 22 22 16 23 25 33 28 4 8 27 24 22 53 30 11 40 37 23 18 18 10 12 11 11 4 10 11 4 5 7 9 10 3 11 10 15 21 37 60 60 45 45 32
21 20 21 19 8 15 4 35 20 6 7 18 25 24 52 8 15 32 27 9 11 17 5 7 11 12 10 5 4 6 3 16 30 16 8 9 6 11 20 31 37 61 57 57 44
17 17 17 17 15 14 30 35 10 8 12 27 17 32 42 20 20 25 30 14 18 15 1 6 15 6 9 6 6 5 16 11 10 10 7 0 6 12 10 19 27 38 46 61 59
13 14 13 14 16 24 31 5 14 12 6 15 19 22 24 21 34 33 24 18 8 8 10 4 12 10 4 10 4 6 17 14 10 5 4 7 8 9 7 10 11 32 48 65 65
9 12 13 15 19 24 19 3 11 13 9 19 11 18 12 22 19 22 23 26 13 9 12 14 12 13 7 10 14 8 10 6 8 6 7 9 4 13 13 10 3 10 7 18 38
10 11 13 14 23 24 8 10 17 8 8 10 10 15 13 20 9 21 13 14 19 14 8 6 8 17 16 6 8 3 5 9 11 6 5 3 9 9 17 7 4 5 16 9 7
9 11 10 17 22 16 3 12 13 12 7 9 11 13 14 12 9 11 11 20 14 25 9 5 7 12 10 9 6 8 4 6 10 5 6 6 8 15 16 5 4 7 7 5 4
8 9 5 11 16 9 10 8 7 4 5 7 7 7 8 16 15 10 15 13 19 20 14 7 7 9 12 14 11 7 4 5 6 5 4 7 5 9 13 14 13 14 14 6 3
5 7 2 10 6 10 7 8 4 6 4 5 1 5 4 7 5 11 13 4 16 17 17 16 3 6 4 3 1 6 5 3 4 8 4 2 6 3 5 6 10 11 15 12 11
4 2 4 2 10 8 4 8 3 5 6 3 4 5 1 6 9 6 8 8 31 22 8 10 4 4 4 3 8 2 5 4 6 7 2 3 9 4 3 6 10 12 16 16 13
4 2 2 2 6 2 3 5 1 5 4 7 2 4 4 6 5 8 8 13 34 14 5 10 4 3 4 2 3 3 8 4 10 4 6 6 8 5 5 8 14 14 15 16 16
7 3 4 6 7 13 9 3 2 5 3 6 3 3 6 8 5 3 10 7 21 25 18 4 6 7 2 4 3 5 6 5 10 5 1 9 9 16 14 11 8 7 7 10 19
8 2 4 3 3 9 7 9 6 4 4 7 3 4 5 5 6 6 6 10 12 22 21 8 7 6 9 11 6 7 12 6 18 17 11 8 23 15 11 17 16 17 13 17 20
15 13 11 5 13 11 2 9 13 6 10 5 7 11 8 7 7 8 5 1 6 15 11 12 4 6 8 11 12 6 12 14 13 16 22 25 32 21 33 33 18 25 24 28 23
20 16 8 17 6 7 8 11 16 14 12 11 14 5 5 4 2 13 17 22 11 3 5 6 7 8 9 10 10 9 10 7 7 9 6 15 10 12 14 19 22 28 35 34 27
Wind_Direction_500mb
342 341 341 341 342 342 342 339 338 334 330 326 324 323 325 321 311 303 287 290 287 280 249 245 247 195 162 187 191 176 152 197 253 291 352 1 2 347 351 105 82 92 159 170 155
335 335 337 338 339 339 339 337 334 331 326 323 319 320 321 320 312 297 308 310 294 259 245 247 253 246 206 178 186 191 188 190 232 145 47 344 354 343 337 101 72 93 122 150 157
333 334 336 338 337 335 336 335 332 331 325 320 316 316 315 317 316 305 257 329 315 267 234 243 242 242 222 188 180 197 209 184 227 230 316 336 322 335 333 358 179 144 147 157 163
330 331 335 339 335 334 333 334 334 330 323 319 320 317 310 303 280 19 275 304 307 286 237 241 235 228 215 207 176 184 221 200 226 262 331 334 320 319 310 299 319 210 173 166 170
330 333 340 340 335 333 333 336 336 327 322 321 321 326 313 283 263 317 309 296 294 282 245 225 228 218 206 212 197 203 176 193 202 265 295 296 302 303 303 313 337 195 177 176 179
334 335 340 337 334 333 335 342 337 327 333 327 329 331 321 275 320 293 293 293 289 273 242 237 232 218 202 253 205 183 167 171 179 197 262 282 283 311 288 303 349 185 182 183 185
335 335 337 335 334 334 338 346 337 341 334 336 327 306 297 277 291 303 297 302 309 268 243 239 229 204 216 301 232 221 175 143 154 159 186 332 274 239 272 291 293 204 187 194 189
337 338 337 335 334 335 340 350 345 6 347 357 4 331 273 309 309 305 310 303 295 261 218 230 217 216 201 275 79 183 163 188 167 146 189 155 267 271 275 300 305 261 206 205 201
333 335 336 335 334 336 342 352 358 5 356 15 358 321 283 329 325 315 306 286 279 269 203 233 231 201 217 186 68 169 152 169 151 169 144 151 248 263 262 273 291 282 220 214 207
332 336 340 338 336 337 344 351 5 12 11 359 349 348 323 324 331 338 346 330 202 179 215 225 142 184 302 165 185 189 129 182 149 179 144 189 234 271 301 314 297 300 243 215 207
324 331 339 339 339 344 347 1 15 7 21 321 300 265 318 336 334 356 35 84 128 132 171 37 146 180 172 144 133 133 170 159 187 173 157 193 223 214 263 300 297 275 275 247 214
325 328 335 338 341 356 360 44 28 320 314 3 312 284 343 338 332 6 43 53 91 105 106 95 197 208 124 139 267 65 65 297 7 150 112 206 226 203 214 238 266 270 274 277 269
318 322 330 338 342 9 347 14 355 17 274 321 340 343 347 335 355 9 30 41 52 66 70 137 181 168 153 149 228 168 170 191 149 151 67 136 241 204 219 217 244 264 262 263 255
318 325 331 344 346 358 344 340 340 117 50 331 347 354 344 13 359 1 12 45 57 53 226 358 353 155 133 127 141 35 192 119 138 163 191 172 252 237 215 214 220 240 247 246 242
324 328 335 346 345 14 337 338 108 114 53 313 327 335 346 46 312 359 12 57 79 44 70 349 9 120 96 114 87 228 112 110 98 99 98 264 95 270 240 224 222 235 235 241 233
327 331 342 345 358 355 331 21 110 45 301 333 327 331 356 16 358 350 11 36 58 70 34 346 325 46 352 32 316 135 87 55 62 79 52 243 145 279 273 235 241 232 232 238 239
329 332 339 352 344 347 349 149 41 88 334 311 325 326 341 359 12 359 10 40 35 48 25 358 343 331 15 62 7 79 68 20 8 12 213 309 222 237 248 333 77 127 143 238 240
332 332 330 347 347 342 351 54 69 238 240 294 308 324 25 355 8 18 19 24 18 22 77 87 353 352 342 79 185 64 95 147 178 198 231 251 237 254 241 211 284 112 133 152 202
317 324 327 346 342 345 327 53 181 195 266 311 336 33 343 338 353 36 51 20 0 10 40 51 36 313 31 340 12 283 86 160 104 12 56 231 278 319 281 214 119 58 60 34 270
320 314 313 341 340 352 64 153 152 184 351 345 100 348 27 336 25 30 26 360 348 6 338 359 76 357 306 337 343 90 294 69 5 109 246 288 250 234 358 58 54 40 25 31 3
313 324 354 340 1 41 114 208 178 177 119 60 157 25 360 8 2 24 354 16 356 334 10 7 108 319 353 349 324 49 359 23 156 147 172 299 268 263 119 79 77 22 14 357 343
228 59 335 4 63 61 93 180 114 53 118 105 42 359 48 327 4 70 36 2 357 339 7 12 1 129 210 144 111 70 278 55 126 281 232 143 277 54 59 80 62 38 24 22 14
192 172 354 252 123 82 270 338 151 129 191 158 204 116 302 346 103 33 328 321 6 23 9 333 32 92 115 82 99 209 257 210 107 80 229 147 259 149 83 70 62 56 29 29 26
164 80 73 76 100 128 133 252 39 191 230 152 101 315 41 16 8 262 349 331 346 23 16 315 48 19 67 16 302 293 225 213 151 184 245 223 303 309 15 49 52 20 1 11 6
178 137 162 191 331 110 106 155 137 151 232 128 36 161 154 56 14 3 325 329 358 21 7 76 41 354 281 272 280 233 295 245 210 237 201 244 245 272 304 307 293 266 253 287 317
167 153 119 120 115 104 341 227 161 172 139 251 154 202 180 143 171 233 13 77 248 357 24 357 323 35 314 354 18 310 289 282 258 258 256 274 282 289 303 313 297 287 293 306 316
178 155 162 163 165 104 209 186 196 159 207 179 179 144 181 196 302 284 282 275 269 51 352 54 12 33 291 336 350 342 245 238 264 235 229 251 269 284 306 324 316 344 331 317 306
Wind_Speed_850mb
20 22 22 25 27 31 33 36 40 43 45 46 47 47 47 48 48 47 55 55 44 39 36 38 23 16 22 23 23 26 8 12 13 2 4 22 30 50 2 16 17 11 26 27 68
21 23 24 25 29 33 36 38 42 46 49 50 49 47 45 48 52 64 50 31 40 36 44 47 37 15 14 23 21 13 17 33 18 7 6 26 25 39 26 15 17 36 29 53 79
22 24 25 26 30 35 38 41 46 50 53 53 50 46 43 42 53 33 0 12 15 18 47 52 47 30 29 26 21 14 25 31 53 34 3 20 37 43 39 3 4 46 63 67 81
23 25 26 27 30 35 40 45 51 52 53 52 51 51 40 29 12 6 19 33 40 23 39 46 48 41 8 20 33 13 24 50 52 39 14 16 30 47 12 23 41 33 50 64 78
23 25 27 29 31 35 42 48 49 52 54 54 48 40 29 17 47 43 40 44 42 45 31 47 44 42 11 15 21 15 16 35 47 38 29 31 14 21 55 45 28 31 53 59 72
23 24 26 30 33 38 45 47 50 57 48 38 30 21 16 27 24 16 38 51 56 42 42 32 45 50 15 17 30 33 20 28 29 23 25 26 41 21 52 32 22 23 45 44 65
22 25 26 30 35 41 47 46 50 43 31 29 24 19 26 38 36 41 44 35 38 41 39 54 53 48 24 10 29 31 17 15 24 24 6 17 28 16 56 55 47 29 35 34 44
22 25 26 31 36 43 46 47 39 21 30 17 11 15 18 31 43 42 40 49 38 23 43 44 35 46 32 11 2 19 2 9 17 33 17 20 31 22 38 40 46 26 35 29 36
20 23 25 30 36 42 44 46 23 19 33 12 18 33 19 45 53 55 48 43 34 17 42 34 20 16 25 6 4 10 9 14 15 48 20 15 13 37 55 46 38 41 36 39 33
21 23 24 29 37 39 45 43 31 25 30 16 19 8 18 55 60 54 52 25 16 18 18 31 18 8 1 15 14 20 10 22 12 25 20 28 28 19 34 29 42 37 41 41 50
21 23 24 28 35 33 42 45 49 14 23 8 19 16 41 58 41 59 38 26 19 6 8 14 26 16 13 14 3 18 10 9 10 18 21 26 25 11 35 37 38 33 22 22 55
22 23 23 26 27 30 33 30 23 11 18 23 19 16 48 50 27 57 35 14 16 9 33 9 4 4 13 11 8 8 4 4 11 27 9 16 21 13 16 23 53 38 26 35 26
22 21 22 22 16 23 25 33 28 4 8 27 24 22 53 30 11 40 37 23 18 18 10 12 11 11 4 10 11 4 5 7 9 10 3 11 10 15 21 37 60 60 45 45 32
21 20 21 19 8 15 4 35 20 6 7 18 25 24 52 8 15 32 27 9 11 17 5 7 11 12 10 5 4 6 3 16 30 16 8 9 6 11 20 31 37 61 57 57 44
17 17 17 17 15 14 30 35 10 8 12 27 17 32 42 20 20 25 30 14 18 15 1 6 15 6 9 6 6 5 16 11 10 10 7 0 6 12 10 19 27 38 46 61 59
13 14 13 14 16 24 31 5 14 12 6 15 19 22 24 21 34 33 24 18 8 8 10 4 12 10 4 10 4 6 17 14 10 5 4 7 8 9 7 10 11 32 48 65 65
9 12 13 15 19 24 19 3 11 13 9 19 11 18 12 22 19 22 23 26 13 9 12 14 12 13 7 10 14 8 10 6 8 6 7 9 4 13 13 10 3 10 7 18 38
10 11 13 14 23 24 8 10 17 8 8 10 10 15 13 20 9 21 13 14 19 14 8 6 8 17 16 6 8 3 5 9 11 6 5 3 9 9 17 7 4 5 16 9 7
9 11 10 17 22 16 3 12 13 12 7 9 11 13 14 12 9 11 11 20 14 25 9 5 7 12 10 9 6 8 4 6 10 5 6 6 8 15 16 5 4 7 7 5 4
8 9 5 11 16 9 10 8 7 4 5 7 7 7 8 16 15 10 15 13 19 20 14 7 7 9 12 14 11 7 4 5 6 5 4 7 5 9 13 14 13 14 14 6 3
5 7 2 10 6 10 7 8 4 6 4 5 1 5 4 7 5 11 13 4 16 17 17 16 3 6 4 3 1 6 5 3 4 8 4 2 6 3 5 6 10 11 15 12 11
4 2 4 2 10 8 4 8 3 5 6 3 4 5 1 6 9 6 8 8 31 22 8 10 4 4 4 3 8 2 5 4 6 7 2 3 9 4 3 6 10 12 16 16 13
4 2 2 2 6 2 3 5 1 5 4 7 2 4 4 6 5 8 8 13 34 14 5 10 4 3 4 2 3 3 8 4 10 4 6 6 8 5 5 8 14 14 15 16 16
7 3 4 6 7 13 9 3 2 5 3 6 3 3 6 8 5 3 10 7 21 25 18 4 6 7 2 4 3 5 6 5 10 5 1 9 9 16 14 11 8 7 7 10 19
8 2 4 3 3 9 7 9 6 4 4 7 3 4 5 5 6 6 6 10 12 22 21 8 7 6 9 11 6 7 12 6 18 17 11 8 23 15 11 17 16 17 13 17 20
15 13 11 5 13 11 2 9 13 6 10 5 7 11 8 7 7 8 5 1 6 15 11 12 4 6 8 11 12 6 12 14 13 16 22 25 32 21 33 33 18 25 24 28 23
20 16 8 17 6 7 8 11 16 14 12 11 14 5 5 4 2 13 17 22 11 3 5 6 7 8 9 10 10 9 10 7 7 9 6 15 10 12 14 19 22 28 35 34 27
Wind_Direction_850mb
342 341 341 341 342 342 342 339 338 334 330 326 324 323 325 321 311 303 287 290 287 280 249 245 247 195 162 187 191 176 152 197 253 291 352 1 2 347 351 105 82 92 159 170 155
335 335 337 338 339 339 339 337 334 331 326 323 319 320 321 320 312 297 308 310 294 259 245 247 253 246 206 178 186 191 188 190 232 145 47 344 354 343 337 101 72 93 122 150 157
333 334 336 338 337 335 336 335 332 331 325 320 316 316 315 317 316 305 257 329 315 267 234 243 242 242 222 188 180 197 209 184 227 230 316 336 322 335 333 358 179 144 147 157 163
330 331 335 339 335 334 333 334 334 330 323 319 320 317 310 303 280 19 275 304 307 286 237 241 235 228 215 207 176 184 221 200 226 262 331 334 320 319 310 299 319 210 173 166 170
330 333 340 340 335 333 333 336 336 327 322 321 321 326 313 283 263 317 309 296 294 282 245 225 228 218 206 212 197 203 176 193 202 265 295 296 302 303 303 313 337 195 177 176 179
334 335 340 337 334 333 335 342 337 327 333 327 329 331 321 275 320 293 293 293 289 273 242 237 232 218 202 253 205 183 167 171 179 197 262 282 283 311 288 303 349 185 182 183 185
335 335 337 335 334 334 338 346 337 341 334 336 327 306 297 277 291 303 297 302 309 268 243 239 229 204 216 301 232 221 175 143 154 159 186 332 274 239 272 291 293 204 187 194 189
337 338 337 335 334 335 340 350 345 6 347 357 4 331 273 309 309 305 310 303 295 261 218 230 217 216 201 275 79 183 163 188 167 146 189 155 267 271 275 300 305 261 206 205 201
333 335 336 335 334 336 342 352 358 5 356 15 358 321 283 329 325 315 306 286 279 269 203 233 231 201 217 186 68 169 152 169 151 169 144 151 248 263 262 273 291 282 220 214 207
332 336 340 338 336 337 344 351 5 12 11 359 349 348 323 324 331 338 346 330 202 179 215 225 142 184 302 165 185 189 129 182 149 179 144 189 234 271 301 314 297 300 243 215 207
324 331 339 339 339 344 347 1 15 7 21 321 300 265 318 336 334 356 35 84 128 132 171 37 146 180 172 144 133 133 170 159 187 173 157 193 223 214 263 300 297 275 275 247 214
325 328 335 338 341 356 360 44 28 320 314 3 312 284 343 338 332 6 43 53 91 105 106 95 197 208 124 139 267 65 65 297 7 150 112 206 226 203 214 238 266 270 274 277 269
318 322 330 338 342 9 347 14 355 17 274 321 340 343 347 335 355 9 30 41 52 66 70 137 181 168 153 149 228 168 170 191 149 151 67 136 241 204 219 217 244 264 262 263 255
318 325 331 344 346 358 344 340 340 117 50 331 347 354 344 13 359 1 12 45 57 53 226 358 353 155 133 127 141 35 192 119 138 163 191 172 252 237 215 214 220 240 247 246 242
324 328 335 346 345 14 337 338 108 114 53 313 327 335 346 46 312 359 12 57 79 44 70 349 9 120 96 114 87 228 112 110 98 99 98 264 95 270 240 224 222 235 235 241 233
327 331 342 345 358 355 331 21 110 45 301 333 327 331 356 16 358 350 11 36 58 70 34 346 325 46 352 32 316 135 87 55 62 79 52 243 145 279 273 235 241 232 232 238 239
329 332 339 352 344 347 349 149 41 88 334 311 325 326 341 359 12 359 10 40 35 48 25 358 343 331 15 62 7 79 68 20 8 12 213 309 222 237 248 333 77 127 143 238 240
332 332 330 347 347 342 351 54 69 238 240 294 308 324 25 355 8 18 19 24 18 22 77 87 353 352 342 79 185 64 95 147 178 198 231 251 237 254 241 211 284 112 133 152 202
317 324 327 346 342 345 327 53 181 195 266 311 336 33 343 338 353 36 51 20 0 10 40 51 36 313 31 340 12 283 86 160 104 12 56 231 278 319 281 214 119 58 60 34 270
320 314 313 341 340 352 64 153 152 184 351 345 100 348 27 336 25 30 26 360 348 6 338 359 76 357 306 337 343 90 294 69 5 109 246 288 250 234 358 58 54 40 25 31 3
313 324 354 340 1 41 114 208 178 177 119 60 157 25 360 8 2 24 354 16 356 334 10 7 108 319 353 349 324 49 359 23 156 147 172 299 268 263 119 79 77 22 14 357 343
228 59 335 4 63 61 93 180 114 53 118 105 42 359 48 327 4 70 36 2 357 339 7 12 1 129 210 144 111 70 278 55 126 281 232 143 277 54 59 80 62 38 24 22 14
192 172 354 252 123 82 270 338 151 129 191 158 204 116 302 346 103 33 328 321 6 23 9 333 32 92 115 82 99 209 257 210 107 80 229 147 259 149 83 70 62 56 29 29 26
164 80 73 76 100 128 133 252 39 191 230 152 101 315 41 16 8 262 349 331 346 23 16 315 48 19 67 16 302 293 225 213 151 184 245 223 303 309 15 49 52 20 1 11 6
178 137 162 191 331 110 106 155 137 151 232 128 36 161 154 56 14 3 325 329 358 21 7 76 41 354 281 272 280 233 295 245 210 237 201 244 245 272 304 307 293 266 253 287 317
167 153 119 120 115 104 341 227 161 172 139 251 154 202 180 143 171 233 13 77 248 357 24 357 323 35 314 354 18 310 289 282 258 258 256 274 282 289 303 313 297 287 293 306 316
178 155 162 163 165 104 209 186 196 159 207 179 179 144 181 196 302 284 282 275 269 51 352 54 12 33 291 336 350 342 245 238 264 235 229 251 269 284 306 324 316 344 331 317 306